Location: Canyam�s
(41.5996°N, 2.4450°E)
Time: 20:57:42
(UTC+00:00)

STARLINK-1329 - Visible Passes

Search period start: 25 September 2020 00:00
Search period end: 05 October 2020 00:00
Orbit: 549 x 550 km, 53.0° (Epoch: 25 September)

Date Brightness Start Highest point End Pass type
(mag) Time Alt. Az. Time Alt. Az. Time Alt. Az.
25 Sep 6.0 04:00:07 10° S 04:03:01 18° SE 04:05:54 10° E visible
26 Sep 5.5 03:55:01 15° S 03:57:23 25° SE 04:00:47 10° ENE visible
27 Sep 4.9 03:50:22 26° S 03:51:47 34° SE 03:55:33 10° ENE visible
28 Sep 4.3 03:45:36 42° SSE 03:46:14 47° SE 03:50:13 10° ENE visible
29 Sep 3.8 03:40:44 64° SE 03:40:44 64° SE 03:44:49 10° ENE visible
29 Sep 4.8 05:16:56 10° W 05:20:34 28° NNW 05:24:12 10° NE visible
30 Sep 3.9 03:35:48 66° ENE 03:35:48 66° ENE 03:39:24 10° NE visible
30 Sep 5.1 05:11:47 10° WNW 05:15:14 25° NNW 05:18:41 10° NE visible
01 Oct 4.4 03:30:48 48° NNE 03:30:48 48° NNE 03:33:56 10° NE visible
01 Oct 5.3 05:06:41 10° WNW 05:09:56 22° NNW 05:13:12 10° NE visible
02 Oct 4.9 03:25:45 36° NNE 03:25:45 36° NNE 03:28:28 10° NE visible
02 Oct 5.5 05:01:35 10° WNW 05:04:40 20° NNW 05:07:45 10° NE visible
03 Oct 5.3 03:20:39 28° NNE 03:20:39 28° NNE 03:22:58 10° NE visible
03 Oct 5.6 04:56:30 10° NW 04:59:25 18° N 05:02:21 10° NE visible
04 Oct 5.7 03:15:32 23° NNE 03:15:32 23° NNE 03:17:30 10° NE visible
04 Oct 5.7 04:51:23 10° NW 04:54:12 17° N 04:57:00 10° NE visible
